EW6584 Weather Reports


Display with metric or nautical units.
time (UTC)temp
F
wind
direction
speed
MPH
gust
MPH
rain 1hr
in
rain 24hr
in
rain mn
in
humidity
%
barometer
mb
20260506210034 56 219 3.0 10.0 0.00 0.00 0.00 79 1020.4
20260506204522 56 287 2.0 9.0 0.00 0.00 0.00 79 1020.4
20260506203038 56 303 2.0 9.0 0.00 0.00 0.00 79 1020.4
20260506201555 56 227 3.0 8.0 0.00 0.00 0.00 79 1020.3
20260506200058 56 260 3.0 8.0 0.00 0.00 0.00 79 1020.2
20260506194543 57 247 2.0 7.0 0.00 0.00 0.00 79 1020.1
20260506193022 56 225 5.0 11.0 0.00 0.00 0.00 80 1020.0
20260506191607 56 204 5.0 8.0 0.00 0.00 0.00 82 1019.9
20260506191509 56 200 5.0 8.0 0.00 0.00 0.00 83 1020.0
20260506190019 55 217 2.0 7.0 0.00 0.00 0.00 84 1020.0
20260506184530 54 256 2.0 5.0 0.00 0.00 0.00 85 1020.1
20260506183056 55 277 2.0 5.0 0.00 0.00 0.00 85 1020.2
20260506181548 55 239 0.0 7.0 0.00 0.00 0.00 87 1019.7
20260506180057 54 252 0.0 5.0 0.00 0.00 0.00 87 1019.8
20260506174516 54 299 2.0 7.0 0.00 0.00 0.00 88 1019.8
20260506173024 54 240 2.0 8.0 0.00 0.00 0.00 86 1019.8
20260506171513 54 237 1.0 8.0 0.00 0.00 0.00 86 1019.9
20260506170018 54 207 4.0 7.0 0.00 0.00 0.00 88 1019.7
20260506164534 54 240 3.0 8.0 0.00 0.00 0.00 88 1019.8
20260506163058 54 255 2.0 7.0 0.00 0.00 0.00 90 1019.4
20260506161535 53 215 3.0 6.0 0.00 0.00 0.00 91 1019.3
20260506160046 53 206 0.0 3.0 0.00 0.00 0.00 92 1019.5
20260506154605 53 245 0.0 5.0 0.00 0.00 0.00 93 1019.6
20260506154502 53 241 1.0 5.0 0.00 0.00 0.00 93 1019.6
20260506153040 53 210 2.0 4.0 0.00 0.00 0.00 93 1019.5
20260506151548 53 242 1.0 3.0 0.00 0.00 0.00 92 1019.3
20260506150010 53 242 1.0 5.0 0.00 0.00 0.00 91 1019.5
20260506144603 53 212 3.0 6.0 0.00 0.00 0.00 90 1019.4
20260506143042 53 216 4.0 7.0 0.00 0.00 0.00 91 1019.2
20260506141551 53 224 1.0 3.0 0.00 0.00 0.00 91 1019.2
20260506140104 53 231 2.0 7.0 0.00 0.00 0.00 91 1019.2
20260506140002 53 245 2.0 7.0 0.00 0.00 0.00 91 1019.2
20260506134512 53 221 3.0 6.0 0.00 0.00 0.00 91 1018.9
20260506133024 53 215 2.0 7.0 0.00 0.00 0.00 91 1019.0
20260506131535 53 222 1.0 4.0 0.00 0.00 0.00 91 1018.6
20260506130038 53 226 2.0 5.0 0.00 0.00 0.00 91 1018.6
20260506124553 53 196 2.0 4.0 0.00 0.00 0.00 92 1018.5
20260506123038 53 196 2.0 6.0 0.00 0.00 0.00 92 1018.4
20260506121525 53 197 2.0 5.0 0.00 0.00 0.00 91 1018.5
20260506120040 53 192 0.0 4.0 0.00 0.00 0.00 91 1018.3
20260506114539 53 191 2.0 5.0 0.00 0.00 0.00 91 1018.1
20260506113051 53 203 1.0 5.0 0.00 0.00 0.00 91 1018.2
20260506111600 53 195 2.0 4.0 0.00 0.00 0.00 90 1018.2
20260506111501 53 195 2.0 4.0 0.00 0.00 0.00 90 1018.3
20260506110040 53 244 1.0 3.0 0.00 0.00 0.00 90 1018.1
20260506104550 53 243 2.0 4.0 0.00 0.00 0.00 90 1018.0
20260506103124 53 228 0.0 4.0 0.00 0.00 0.00 89 1017.8
20260506103005 53 228 0.0 4.0 0.00 0.00 0.00 89 1017.8
20260506101514 53 228 2.0 4.0 0.00 0.00 0.00 89 1017.7
20260506100029 53 222 1.0 5.0 0.00 0.00 0.00 89 1017.6
20260506094512 53 204 0.0 6.0 0.00 0.00 0.00 89 1017.3
20260506093017 53 204 2.0 4.0 0.00 0.00 0.00 89 1017.3
20260506091531 53 210 2.0 6.0 0.00 0.00 0.00 89 1017.3
20260506090048 53 214 2.0 6.0 0.00 0.00 0.00 89 1017.3
20260506084615 53 214 3.0 9.0 0.00 0.00 0.00 89 1017.2
20260506083013 53 216 3.0 7.0 0.00 0.00 0.00 89 1017.1
20260506081523 53 222 3.0 7.0 0.00 0.00 0.00 89 1017.0
20260506073058 54 248 2.0 7.0 0.00 0.00 0.00 87 1016.7
20260506071505 54 233 3.0 6.0 0.00 0.00 0.00 87 1016.6
20260506061508 56 249 1.0 3.0 0.00 0.00 0.00 84 1016.0
20260506050104 58 258 2.0 6.0 0.00 0.00 0.00 80 1015.5
20260506044522 59 246 2.0 4.0 0.00 0.00 0.00 80 1015.5
20260506043042 60 248 2.0 4.0 0.00 0.00 0.00 80 1015.4
20260506041552 60 251 2.0 3.0 0.00 0.00 0.00 80 1015.2
20260506040003 60 251 0.0 3.0 0.00 0.00 0.00 79 1015.2
20260506034540 61 251 1.0 3.0 0.00 0.00 0.00 78 1015.0
20260506033052 61 251 1.0 3.0 0.00 0.00 0.00 77 1014.8
20260506031516 62 251 0.0 4.0 0.00 0.00 0.00 76 1014.7
20260506030008 62 258 0.0 3.0 0.00 0.00 0.00 75 1014.6
20260506024536 62 257 1.0 3.0 0.00 0.00 0.00 74 1014.6
20260506023026 63 278 2.0 4.0 0.00 0.00 0.00 74 1014.6
20260506021533 63 263 2.0 6.0 0.00 0.00 0.00 73 1014.6
20260506020017 64 247 2.0 6.0 0.00 0.00 0.00 71 1014.5
20260506014530 65 236 1.0 6.0 0.00 0.00 0.00 70 1014.5
20260506013045 65 284 2.0 5.0 0.00 0.00 0.00 68 1014.5
20260506011606 65 213 3.0 9.0 0.00 0.00 0.00 68 1014.6
20260506010017 65 274 2.0 7.0 0.00 0.00 0.00 69 1014.7
20260506004530 64 324 3.0 8.0 0.00 0.00 0.00 70 1014.7
20260506003014 65 268 1.0 5.0 0.00 0.00 0.00 68 1014.8
20260506001527 65 281 3.0 8.0 0.00 0.00 0.00 68 1014.8
20260506000039 65 338 1.0 7.0 0.00 0.00 0.00 69 1014.8
20260505234558 64 285 3.0 10.0 0.00 0.00 0.00 68 1015.0
20260505233059 64 233 4.0 8.0 0.00 0.00 0.00 70 1015.1
20260505233001 64 233 3.0 8.0 0.00 0.00 0.00 70 1015.2
20260505231514 63 254 3.0 7.0 0.00 0.00 0.00 71 1015.2
20260505230031 63 284 2.0 5.0 0.00 0.00 0.00 72 1015.3
20260505224537 63 246 2.0 7.0 0.00 0.00 0.00 71 1015.5
20260505223047 62 231 4.0 8.0 0.00 0.00 0.00 72 1015.6
20260505221559 63 241 3.0 5.0 0.00 0.00 0.00 72 1015.7
20260505220004 62 258 2.0 6.0 0.00 0.00 0.00 74 1015.8
20260505214558 61 291 1.0 7.0 0.00 0.00 0.00 76 1015.9
20260505213045 61 253 3.0 8.0 0.00 0.00 0.00 76 1016.0
20260505211606 60 239 1.0 6.0 0.00 0.00 0.00 77 1016.0